Theta_e
308 306 306 305 305 306 308 310 311 315 318 318 321 319 317 313 306 306 308 307 306 303 306 304 305 309 315 313 314 314 310 310 313 313 312 311 310 311 310 309 309 311 313 313 312
306 307 306 306 304 306 308 308 308 310 316 318 319 319 317 311 305 308 309 309 307 303 306 305 305 307 308 311 311 310 307 309 310 311 311 310 309 308 308 308 307 309 311 311 311
305 305 306 306 305 304 306 307 306 306 310 316 318 319 317 307 308 310 310 309 307 303 306 306 307 306 306 307 307 309 309 309 310 310 306 306 306 307 306 305 308 308 308 309 311
305 304 306 306 305 303 303 304 304 305 307 310 316 318 317 307 312 310 307 307 304 304 306 306 308 306 303 304 305 305 306 306 305 305 304 304 304 305 305 305 306 306 307 307 307
303 302 304 304 305 304 302 301 299 305 306 310 316 317 312 310 310 310 311 305 305 305 307 306 306 305 303 303 304 303 303 304 305 304 304 304 304 303 304 305 305 305 305 306 306
302 302 303 303 304 304 302 302 302 301 304 311 315 317 314 310 311 310 308 305 305 305 305 305 305 304 304 303 302 303 304 304 304 304 303 303 303 303 303 304 304 304 303 303 304
302 302 302 303 303 302 302 301 303 306 303 310 313 313 311 312 311 308 307 306 305 305 305 304 304 304 304 303 304 304 302 301 301 303 303 304 302 302 304 304 303 304 305 305 305
300 300 301 302 302 301 300 299 302 305 304 310 311 311 312 311 310 306 305 305 305 305 304 304 304 303 304 304 301 301 301 301 301 302 304 303 303 302 305 304 304 304 305 305 305
300 301 302 302 301 299 304 306 303 304 308 311 310 310 310 310 308 308 307 306 305 305 304 303 303 304 303 297 296 297 300 301 302 303 304 304 303 304 305 305 304 305 305 305 305
301 301 301 300 299 305 306 304 304 306 310 309 309 309 307 307 309 309 307 307 305 305 305 304 303 298 297 295 295 301 301 302 302 303 304 304 304 304 305 305 305 305 305 305 305
300 300 300 302 300 304 307 306 308 307 308 308 309 307 306 305 307 307 307 305 305 304 304 302 298 297 301 300 299 300 302 301 302 303 304 304 304 305 306 306 306 306 306 305 304
298 298 302 301 302 303 306 306 307 305 305 307 307 306 306 305 305 306 306 305 305 303 302 300 298 301 302 301 302 302 302 302 302 304 305 307 308 307 307 306 306 307 305 306 305
299 299 301 301 302 306 306 306 306 305 304 306 306 306 306 305 305 305 306 305 305 305 304 303 304 303 303 303 303 299 300 302 303 306 307 309 309 305 303 304 308 309 306 306 306
300 299 302 302 303 305 306 305 306 306 306 305 307 306 307 305 307 306 306 307 306 305 307 304 304 304 304 304 301 304 303 304 306 309 312 310 311 305 304 308 310 311 309 306 306
302 304 303 303 302 305 306 307 308 307 307 307 306 306 308 307 306 306 306 307 308 307 302 302 305 306 306 303 303 306 306 307 309 311 311 308 309 304 306 312 311 311 310 310 311
302 304 303 305 306 306 306 308 305 304 307 307 306 306 307 308 308 307 307 307 306 306 305 303 305 305 304 305 304 306 307 309 310 309 305 306 307 307 312 312 312 312 311 310 312
303 304 305 306 305 306 307 306 302 305 305 307 306 307 308 308 307 309 307 307 306 298 297 302 305 305 305 306 307 307 311 306 304 301 307 310 307 308 310 309 312 312 311 311 311
302 303 304 305 305 305 305 300 303 307 307 305 306 308 308 309 308 309 308 305 307 307 303 304 304 307 306 308 311 311 314 316 313 307 310 310 308 313 308 307 310 310 309 308 308
305 306 306 306 306 305 304 304 302 306 306 306 308 307 307 309 309 308 309 309 308 306 308 310 304 306 307 308 310 313 314 314 315 311 314 309 314 313 309 307 308 309 308 306 306
306 307 307 307 307 306 303 308 305 306 306 307 308 307 308 310 310 309 309 308 310 307 308 310 313 308 309 310 310 311 311 310 312 310 311 310 313 315 310 307 307 307 306 304 305
307 307 308 308 308 308 306 307 308 308 307 308 307 307 307 309 308 309 310 308 308 309 307 310 310 307 308 311 312 310 310 311 310 310 315 316 312 311 309 308 307 306 303 301 303
308 302 308 309 306 302 305 306 308 309 309 309 307 306 307 307 309 309 310 308 309 310 310 309 311 311 308 309 307 310 311 307 307 309 307 311 310 310 310 308 305 303 303 301 302
307 308 309 309 303 300 304 307 308 308 307 308 309 308 307 307 310 308 308 310 309 308 309 309 306 303 303 304 306 309 309 308 307 304 307 309 311 308 309 308 306 305 305 305 305
307 301 308 307 305 304 305 305 307 308 307 307 308 307 308 309 307 309 310 309 309 309 310 308 306 306 304 305 306 308 307 306 306 301 308 307 308 308 308 309 308 307 306 305 304
307 303 304 300 304 303 305 306 308 308 307 308 308 307 308 309 309 309 308 307 308 309 309 306 307 303 304 304 305 306 307 306 306 306 307 307 308 307 305 304 306 307 304 302 302
306 306 305 303 304 304 304 306 308 308 307 308 308 307 307 309 308 308 308 307 308 306 307 304 304 305 302 306 305 307 305 305 304 308 306 307 307 305 306 305 304 304 303 303 303
306 306 305 302 302 304 305 307 307 307 307 308 307 306 306 307 308 308 308 307 306 307 305 305 303 301 305 303 304 306 305 305 306 307 307 309 307 304 304 303 304 304 304 304 304
Wind_Speed
14 10 8 9 9 12 13 11 13 14 7 7 19 13 9 5 2 6 7 7 7 7 7 8 9 10 8 7 6 6 4 2 2 4 4 3 7 5 9 11 7 6 9 13 17
14 12 11 8 8 14 14 10 12 14 10 5 3 15 10 5 5 6 7 8 7 6 7 8 10 12 6 4 3 4 3 7 3 2 3 9 3 11 6 10 12 24 14 18 18
13 12 11 10 8 9 16 17 13 10 12 9 5 17 12 7 7 4 7 6 5 7 8 8 9 7 5 4 2 3 4 4 3 5 5 7 9 5 4 4 8 8 22 27 26
15 10 10 9 9 8 8 13 14 16 9 9 6 18 11 8 4 7 5 5 6 8 7 7 6 3 4 4 3 1 1 1 4 4 8 7 11 8 15 13 25 28 23 27 31
10 10 9 10 9 7 7 8 12 16 12 6 3 11 9 7 8 10 8 7 8 6 6 6 6 4 4 3 2 2 4 8 10 20 17 16 16 13 14 34 30 29 30 22 24
10 9 7 9 8 9 9 10 7 7 11 12 8 15 14 7 12 9 6 7 6 5 7 5 6 8 7 3 3 3 7 13 12 15 15 10 11 5 5 17 22 29 34 32 31
8 8 4 4 6 8 9 10 7 5 7 16 6 19 18 8 13 8 9 8 7 5 7 9 7 3 4 3 4 3 5 7 4 3 4 11 5 10 22 18 25 25 30 29 27
6 8 7 4 6 9 11 11 9 9 9 11 21 16 12 18 10 12 9 11 8 9 7 8 6 7 4 2 5 4 4 5 4 7 5 5 11 2 9 17 32 31 30 32 32
9 5 3 2 7 9 10 10 10 7 17 11 22 16 9 18 13 11 6 10 8 7 8 5 4 5 3 4 4 7 2 2 8 3 2 1 15 2 17 21 25 34 36 37 40
8 6 3 4 6 8 11 15 21 24 13 25 21 13 11 10 14 10 6 5 7 8 6 6 6 4 4 5 3 2 3 4 6 5 1 7 25 23 36 25 31 37 39 36 37
8 7 8 10 10 5 21 31 25 9 16 7 13 9 18 17 15 11 8 9 7 6 3 5 5 1 2 3 3 2 1 6 8 10 8 11 20 22 32 26 27 32 35 33 35
12 10 9 12 13 2 21 9 14 12 22 27 28 25 22 13 13 11 7 4 4 3 2 5 1 3 3 3 2 2 2 7 8 7 5 12 20 20 19 15 19 23 30 25 26
11 9 11 10 13 12 26 26 22 16 8 16 21 14 7 13 7 6 3 2 2 2 1 3 2 4 3 2 2 3 4 5 7 8 12 14 12 4 6 10 17 16 20 15 19
13 7 6 6 13 25 26 27 18 9 5 7 4 4 4 11 6 6 4 2 2 2 2 3 1 1 2 4 5 4 7 10 9 7 4 2 6 5 6 9 14 22 27 15 14
13 12 9 13 19 21 24 23 7 2 6 5 4 4 4 6 10 2 3 2 2 2 5 4 2 2 3 4 5 8 2 5 9 10 5 3 3 6 8 14 15 21 20 18 16
14 14 14 19 21 19 10 6 2 5 5 2 3 2 3 5 3 4 1 1 2 1 1 6 2 3 4 2 7 6 5 5 2 2 2 4 4 4 7 12 14 9 12 15 14
17 13 15 19 14 11 4 4 5 5 1 2 3 2 1 2 1 2 1 1 2 5 5 5 3 2 3 4 2 1 4 4 5 3 4 4 2 5 10 11 13 11 8 9 10
18 15 12 10 6 3 3 4 9 2 3 3 3 3 3 2 1 1 2 2 2 3 3 4 6 4 5 5 2 3 2 1 4 3 5 0 3 3 6 12 14 10 11 14 14
10 18 20 11 4 1 3 7 4 2 3 5 3 4 2 1 3 3 3 1 3 4 2 2 5 4 6 4 3 0 2 1 4 1 4 2 4 3 10 11 14 13 13 15 15
7 8 26 12 9 5 5 7 3 1 4 2 3 2 2 1 2 3 1 3 3 5 3 1 5 4 4 2 5 4 2 2 1 4 5 4 2 5 11 9 9 10 13 16 15
10 5 20 12 19 15 6 4 4 2 3 2 2 3 1 1 2 1 2 4 3 4 8 1 2 6 1 5 4 2 0 1 0 3 2 4 3 2 6 5 7 8 10 10 13
18 4 16 11 9 5 3 2 3 3 3 2 0 2 4 4 2 1 4 4 9 8 4 5 2 5 8 1 2 1 3 3 3 3 2 1 4 3 5 5 3 3 5 8 13
7 8 26 11 4 4 4 3 3 4 3 2 2 3 1 4 0 4 3 2 12 7 4 3 2 4 7 4 2 1 2 3 1 2 4 3 4 1 5 5 3 3 6 7 7
3 3 8 17 9 4 4 4 5 6 2 4 3 3 2 0 3 3 2 1 11 8 6 5 2 5 5 6 2 5 3 3 3 1 2 5 4 4 3 3 4 5 3 2 1
4 2 3 2 6 4 2 1 4 6 6 10 3 5 2 3 2 2 2 4 1 3 2 2 4 4 7 11 6 8 9 5 6 6 5 4 5 5 8 9 12 9 5 4 3
3 4 4 3 2 4 5 5 4 4 2 3 2 3 1 3 3 3 1 3 3 1 4 1 4 2 5 4 3 6 9 8 6 4 6 4 6 5 4 8 10 10 9 7 5
6 4 1 1 1 3 3 3 1 1 2 3 3 2 2 3 7 11 11 9 5 2 2 2 0 3 5 5 7 7 6 8 5 4 5 6 7 4 4 8 12 12 12 10 7
Wind_Direction
273 267 267 272 253 284 276 278 263 262 263 292 206 212 209 217 193 154 142 148 140 146 140 142 148 149 150 96 102 112 71 169 235 159 264 359 8 312 315 289 313 316 296 306 322
279 265 267 263 267 248 271 274 281 257 243 265 76 212 206 195 142 135 141 131 144 142 134 146 129 143 103 98 77 89 125 204 207 202 259 301 282 306 308 296 295 298 281 279 290
298 272 260 262 274 258 247 268 280 289 247 235 271 200 185 164 132 120 142 152 161 145 133 124 125 120 94 112 68 140 176 182 227 272 328 289 297 291 262 272 288 294 303 298 293
292 278 265 247 260 275 274 253 266 262 259 235 252 185 171 152 136 126 121 121 138 145 137 120 125 68 75 84 51 83 326 24 299 306 318 299 298 274 263 269 286 286 287 289 288
306 284 266 266 245 255 277 280 261 244 249 201 251 211 178 110 90 112 121 116 125 135 127 128 104 75 87 83 78 35 359 322 295 295 291 285 267 269 266 279 283 282 281 277 281
311 298 276 270 248 244 266 285 283 232 250 180 192 179 155 77 126 126 118 123 118 128 119 117 109 98 93 65 60 322 297 291 290 283 281 274 275 257 249 274 267 276 279 283 284
320 298 266 275 253 260 269 268 232 223 202 169 205 144 113 101 132 132 137 115 105 107 114 94 104 109 96 96 8 332 339 331 344 337 285 321 249 224 276 280 274 277 282 280 277
333 323 286 264 286 288 284 270 213 207 188 162 146 139 96 131 123 133 130 107 100 90 97 79 88 99 56 76 23 43 50 2 293 353 342 63 282 259 295 278 279 282 278 280 274
338 353 342 329 295 309 301 267 197 173 151 153 137 120 108 132 134 126 123 111 97 84 79 71 95 71 53 63 18 17 334 302 311 16 310 226 283 120 313 295 284 284 281 276 276
41 48 42 334 342 69 50 122 135 142 145 133 128 108 137 141 137 137 115 106 93 97 67 49 53 66 36 59 228 287 322 280 251 292 260 269 269 289 286 285 278 280 279 272 272
38 46 48 35 37 127 109 116 115 83 88 73 123 90 133 134 137 133 121 107 80 57 61 30 62 127 220 188 159 150 237 252 258 261 298 249 269 286 292 293 275 275 278 267 262
39 36 58 45 65 157 139 82 109 110 74 74 104 115 120 121 113 120 113 62 57 83 87 26 55 195 153 163 173 191 286 277 289 271 246 284 286 282 287 270 273 297 284 281 272
32 38 60 52 66 114 111 110 118 108 79 40 74 78 85 114 93 127 111 85 71 52 150 146 225 126 170 243 270 223 202 242 233 316 265 289 286 266 288 269 323 320 347 312 284
32 44 61 36 69 115 113 118 104 95 79 16 50 59 68 119 66 149 182 28 50 21 23 220 287 127 245 259 147 300 217 247 272 322 303 54 291 274 297 319 342 1 359 334 313
44 39 41 85 122 109 118 127 130 115 76 13 20 57 77 74 133 134 202 17 23 360 73 262 338 5 289 218 165 241 180 237 270 264 301 207 262 272 314 346 348 346 352 349 25
42 47 86 109 118 115 115 114 346 37 73 51 14 43 70 41 51 143 192 331 23 347 277 232 229 202 223 270 207 291 314 302 259 236 268 216 181 290 358 333 327 342 342 354 27
49 71 87 114 112 117 89 355 50 62 199 46 93 48 136 90 20 161 133 349 47 34 354 320 231 253 195 279 138 174 294 326 353 5 239 178 206 267 359 339 331 349 351 2 33
67 62 53 80 115 177 309 45 69 281 75 95 109 89 101 182 64 124 128 55 33 106 1 31 337 192 178 212 251 238 293 339 293 296 292 94 264 294 12 350 351 20 23 40 53
55 48 36 26 355 276 100 54 139 76 134 134 112 70 330 170 124 47 23 327 131 160 111 336 282 284 190 184 165 176 285 318 281 284 277 244 254 194 6 352 356 26 30 40 47
42 33 18 32 52 91 74 88 75 55 108 87 138 225 103 83 112 16 45 276 125 181 150 322 285 222 295 186 233 202 257 45 338 349 313 296 312 292 335 338 341 38 37 33 43
46 52 22 48 64 63 67 62 64 107 136 145 137 107 80 150 53 135 222 267 221 165 167 302 194 293 343 207 186 165 300 359 238 164 276 311 309 286 315 338 329 37 46 43 43
53 42 23 47 52 35 49 1 17 1 287 339 95 117 162 164 179 263 228 236 187 150 188 209 274 272 240 245 337 197 161 128 117 280 252 265 279 336 5 15 57 40 72 76 70
51 49 42 71 71 13 348 35 63 35 23 11 7 10 177 158 234 193 224 251 176 166 203 175 250 321 348 8 40 6 170 155 250 89 232 162 276 74 74 52 85 144 117 119 92
69 40 38 53 67 91 23 0 9 32 50 30 12 52 40 358 216 268 260 194 191 207 237 181 220 195 204 224 195 277 239 173 161 120 211 227 274 210 182 155 205 218 198 192 192
68 80 68 10 11 33 63 26 13 5 9 31 57 50 340 320 316 289 327 331 179 292 219 175 260 195 253 258 243 249 258 238 196 226 189 270 222 228 207 202 206 213 219 203 207
37 123 113 110 108 72 14 11 13 333 358 347 68 314 30 227 209 252 183 207 235 272 193 182 268 328 283 304 232 263 247 238 222 231 250 251 268 219 195 196 201 213 211 220 218
48 61 28 43 67 104 195 177 142 292 253 303 293 300 270 236 248 257 248 248 228 217 231 190 203 22 269 340 322 302 244 195 185 189 172 199 230 167 190 207 217 210 212 217 219